GSAT0209 (GALILEO 12) (41174 NORAD) Tracking and Keplerian Element Data

This shows tracking and keplerian element data for the satellite.

Feedback or suggestion? Click here.




ElementValue
Catalog41174
NameGSAT0209 (GALILEO 12)
Epoch Orbit3591
Epoch Day267.13844302
Epoch Year2021
RAAN148.7254
Inclination55.08
Eccentricity0.0003314
Argument of Perigee331.4927
Mean Anonmoly28.5857
Mean Motion1.70472924
Decay Rate8E-08
L11 41174U 15079A 21267.13844302 .00000008 00000-0 00000+0 0 9999
L22 41174 55.0800 148.7254 0003314 331.4927 28.5857 1.70472924 35917

Live tracking and technical data element details for GSAT0209 (GALILEO 12) (NORAD 41174). GSAT0209 (GALILEO 12) can be tracked NOW for your location showing map with azimuth and elevation plus other details from your city location.

Track the satellite on the map from your city or location and see movement details for azimuth, elevation, latitude, longitude, range, height, and movement on the map or in text.







IsCatalogInMostPopularTable: catalog: 41174, numindb: 519
Update: records affected: 1



GetName: 41174 GSAT0209 (GALILEO 12)

Hit Count: updated at: Mon, 27 Sep 2021 01:00:19 GMT